When you browse on this site, cookies collect data to enhance your experience and personalize the content and advertising you see.
Visit our Privacy Policy to learn more. By continuing to use the site, you agree to this use of cookies and data.
  • In Portugal
  • List of Countries
  • For 7 days
  • Water Temperature
  • Satellite Maps
  • Weather Map
  • Weather Widgets
  • user-avatar
    Login

    Hourly Weather Knighton

    Today, 18 July, Thursday

    Time Temperature Precipitation Wind Pressure Humidity
    00:00 +14°C° 0 mm 2 mps 727 mmHg 98%
    01:00 +14°C° 0.1 mm 2 mps 727 mmHg 98%
    02:00 +14°C° 0.1 mm 2 mps 727 mmHg 97%
    03:00 +14°C° 0.1 mm 2 mps 727 mmHg 97%
    04:00 +13°C° 0 mm 3 mps 727 mmHg 95%
    05:00 +12°C° 0 mm 3 mps 727 mmHg 94%
    06:00 +12°C° 0 mm 3 mps 727 mmHg 91%
    07:00 +13°C° 0 mm 4 mps 727 mmHg 87%
    08:00 +14°C° 0 mm 4 mps 728 mmHg 83%
    09:00 +15°C° 0 mm 5 mps 728 mmHg 79%
    10:00 +16°C° 0 mm 5 mps 728 mmHg 75%
    11:00 +16°C° 0 mm 5 mps 728 mmHg 71%
    12:00 +17°C° 0 mm 6 mps 728 mmHg 67%
    13:00 +17°C° 0 mm 6 mps 728 mmHg 67%
    14:00 +17°C° 0 mm 6 mps 728 mmHg 67%
    15:00 +17°C° 0 mm 6 mps 729 mmHg 67%
    16:00 +16°C° 0 mm 6 mps 729 mmHg 71%
    17:00 +16°C° 0 mm 5 mps 729 mmHg 74%
    18:00 +15°C° 0 mm 5 mps 728 mmHg 77%
    19:00 +14°C° 0 mm 4 mps 729 mmHg 82%
    20:00 +13°C° 0 mm 3 mps 729 mmHg 88%
    21:00 +11°C° 0 mm 3 mps 729 mmHg 93%
    22:00 +11°C° 0 mm 3 mps 729 mmHg 94%
    23:00 +10°C° 0 mm 2 mps 729 mmHg 94%

    Tomorrow, 19 July, Friday

    Time Temperature Precipitation Wind Pressure Humidity
    00:00 +10°C° 0 mm 2 mps 729 mmHg 95%
    01:00 +10°C° 0 mm 2 mps 729 mmHg 95%
    02:00 +10°C° 0 mm 2 mps 728 mmHg 95%
    03:00 +9°C° 0 mm 2 mps 728 mmHg 95%
    04:00 +10°C° 0.2 mm 2 mps 728 mmHg 95%
    05:00 +12°C° 0.2 mm 2 mps 728 mmHg 95%
    06:00 +13°C° 0.2 mm 2 mps 728 mmHg 95%
    07:00 +12°C° 0.9 mm 3 mps 727 mmHg 96%
    08:00 +12°C° 0.9 mm 4 mps 727 mmHg 96%
    09:00 +12°C° 0.9 mm 5 mps 726 mmHg 97%
    10:00 +13°C° 0.1 mm 5 mps 726 mmHg 95%
    11:00 +15°C° 0.1 mm 5 mps 726 mmHg 94%
    12:00 +16°C° 0.1 mm 5 mps 726 mmHg 92%
    13:00 +17°C° 0.5 mm 6 mps 726 mmHg 91%
    14:00 +17°C° 0.5 mm 6 mps 726 mmHg 90%
    15:00 +17°C° 0.5 mm 7 mps 725 mmHg 89%
    16:00 +17°C° 0.3 mm 7 mps 725 mmHg 88%
    17:00 +17°C° 0.3 mm 7 mps 725 mmHg 87%
    18:00 +16°C° 0.3 mm 7 mps 725 mmHg 86%
    19:00 +15°C° 0 mm 6 mps 725 mmHg 88%
    20:00 +14°C° 0 mm 5 mps 725 mmHg 89%
    21:00 +14°C° 0 mm 4 mps 725 mmHg 91%
    22:00 +13°C° 0 mm 4 mps 725 mmHg 91%
    23:00 +13°C° 0 mm 4 mps 725 mmHg 91%

    Day after tomorrow, 20 July, Saturday

    Time Temperature Precipitation Wind Pressure Humidity
    00:00 +13°C° 0 mm 4 mps 725 mmHg 92%
    01:00 +13°C° 0 mm 4 mps 725 mmHg 93%
    02:00 +12°C° 0 mm 3 mps 725 mmHg 94%
    03:00 +12°C° 0 mm 3 mps 724 mmHg 96%
    04:00 +12°C° 0 mm 3 mps 724 mmHg 95%
    05:00 +13°C° 0 mm 4 mps 724 mmHg 95%
    06:00 +13°C° 0 mm 4 mps 724 mmHg 95%
    07:00 +14°C° 0.1 mm 4 mps 725 mmHg 92%
    08:00 +15°C° 0.1 mm 5 mps 725 mmHg 89%
    09:00 +16°C° 0.1 mm 5 mps 726 mmHg 86%
    10:00 +17°C° 0.3 mm 6 mps 726 mmHg 83%
    11:00 +19°C° 0.3 mm 6 mps 726 mmHg 80%
    12:00 +18°C° 0.3 mm 7 mps 727 mmHg 76%
    13:00 +18°C° 0 mm 7 mps 727 mmHg 75%
    14:00 +19°C° 0 mm 6 mps 727 mmHg 74%
    15:00 +19°C° 0 mm 6 mps 728 mmHg 73%
    16:00 +17°C° 0 mm 5 mps 728 mmHg 75%
    17:00 +17°C° 0 mm 5 mps 729 mmHg 77%
    18:00 +17°C° 0 mm 4 mps 729 mmHg 79%
    19:00 +15°C° 0 mm 4 mps 730 mmHg 84%
    20:00 +13°C° 0 mm 3 mps 730 mmHg 89%
    21:00 +13°C° 0 mm 2 mps 731 mmHg 94%
    22:00 +12°C° 0 mm 2 mps 731 mmHg 94%
    23:00 +12°C° 0 mm 2 mps 732 mmHg 94%

    21 July, Sunday

    Time Temperature Precipitation Wind Pressure Humidity
    00:00 +10°C° 0 mm 2 mps 732 mmHg 95%
    01:00 +10°C° 0 mm 2 mps 732 mmHg 94%
    02:00 +10°C° 0 mm 2 mps 732 mmHg 94%
    03:00 +11°C° 0 mm 1 mps 732 mmHg 94%
    04:00 +12°C° 0 mm 2 mps 733 mmHg 93%
    05:00 +12°C° 0 mm 2 mps 733 mmHg 93%
    06:00 +13°C° 0 mm 2 mps 734 mmHg 92%
    07:00 +13°C° 0 mm 3 mps 734 mmHg 88%
    08:00 +16°C° 0 mm 3 mps 735 mmHg 83%
    09:00 +17°C° 0 mm 4 mps 735 mmHg 78%
    10:00 +18°C° 0 mm 4 mps 735 mmHg 77%
    11:00 +17°C° 0 mm 5 mps 735 mmHg 75%
    12:00 +19°C° 0 mm 5 mps 735 mmHg 73%
    13:00 +19°C° 0 mm 5 mps 735 mmHg 73%
    14:00 +20°C° 0 mm 5 mps 736 mmHg 73%
    15:00 +20°C° 0 mm 5 mps 736 mmHg 73%
    16:00 +19°C° 0 mm 4 mps 736 mmHg 76%
    17:00 +19°C° 0 mm 4 mps 736 mmHg 78%
    18:00 +18°C° 0 mm 4 mps 736 mmHg 80%
    19:00 +16°C° 0 mm 3 mps 736 mmHg 84%
    20:00 +14°C° 0 mm 3 mps 736 mmHg 88%
    21:00 +13°C° 0 mm 2 mps 736 mmHg 92%
    22:00 +13°C° 0 mm 2 mps 736 mmHg 93%
    23:00 +12°C° 0 mm 2 mps 736 mmHg 93%

    22 July, Monday

    Time Temperature Precipitation Wind Pressure Humidity
    00:00 +12°C° 0 mm 2 mps 736 mmHg 93%
    01:00 +12°C° 0 mm 2 mps 735 mmHg 94%
    02:00 +12°C° 0 mm 2 mps 735 mmHg 95%
    03:00 +10°C° 0 mm 2 mps 735 mmHg 96%
    04:00 +12°C° 0 mm 2 mps 735 mmHg 96%
    05:00 +12°C° 0 mm 3 mps 735 mmHg 95%
    06:00 +12°C° 0 mm 3 mps 735 mmHg 94%
    07:00 +14°C° 0 mm 3 mps 735 mmHg 89%
    08:00 +16°C° 0 mm 3 mps 736 mmHg 84%
    09:00 +18°C° 0 mm 4 mps 736 mmHg 79%
    10:00 +19°C° 0 mm 4 mps 736 mmHg 76%
    11:00 +20°C° 0 mm 4 mps 736 mmHg 74%
    12:00 +21°C° 0 mm 5 mps 736 mmHg 71%
    13:00 +22°C° 0 mm 4 mps 736 mmHg 70%
    14:00 +22°C° 0 mm 4 mps 736 mmHg 70%
    15:00 +22°C° 0 mm 4 mps 736 mmHg 69%
    16:00 +22°C° 0 mm 3 mps 736 mmHg 72%
    17:00 +22°C° 0 mm 3 mps 736 mmHg 75%
    18:00 +21°C° 0 mm 2 mps 735 mmHg 78%
    19:00 +20°C° 0 mm 2 mps 735 mmHg 82%
    20:00 +19°C° 0 mm 1 mps 735 mmHg 86%
    21:00 +16°C° 0 mm 1 mps 735 mmHg 89%
    22:00 +15°C° 0 mm 1 mps 735 mmHg 90%
    23:00 +15°C° 0 mm 1 mps 735 mmHg 90%

    23 July, Tuesday

    Time Temperature Precipitation Wind Pressure Humidity
    00:00 +14°C° 0 mm 1 mps 735 mmHg 90%
    01:00 +14°C° 0 mm 1 mps 734 mmHg 90%
    02:00 +14°C° 0 mm 1 mps 734 mmHg 91%
    03:00 +12°C° 0 mm 0 mps 733 mmHg 91%
    04:00 +14°C° 0 mm 1 mps 733 mmHg 90%
    05:00 +15°C° 0 mm 1 mps 733 mmHg 90%
    06:00 +16°C° 0 mm 1 mps 732 mmHg 89%
    07:00 +19°C° 0 mm 1 mps 732 mmHg 86%
    08:00 +19°C° 0 mm 2 mps 732 mmHg 82%
    09:00 +21°C° 0 mm 2 mps 732 mmHg 78%
    10:00 +24°C° 0 mm 3 mps 732 mmHg 77%
    11:00 +25°C° 0 mm 4 mps 732 mmHg 75%
    12:00 +26°C° 0 mm 5 mps 731 mmHg 74%
    13:00 +27°C° 0 mm 5 mps 731 mmHg 73%
    14:00 +28°C° 0 mm 5 mps 731 mmHg 73%
    15:00 +29°C° 0 mm 5 mps 730 mmHg 72%
    16:00 +28°C° 1.1 mm 4 mps 730 mmHg 75%
    17:00 +28°C° 1.1 mm 4 mps 730 mmHg 79%
    18:00 +27°C° 1.1 mm 4 mps 729 mmHg 82%
    19:00 +26°C° 1.3 mm 4 mps 729 mmHg 84%
    20:00 +24°C° 1.3 mm 3 mps 729 mmHg 87%
    21:00 +23°C° 1.3 mm 2 mps 729 mmHg 89%
    22:00 +21°C° 0.4 mm 2 mps 729 mmHg 91%
    23:00 +21°C° 0.4 mm 1 mps 729 mmHg 93%
    Show more